{"data":{"norad_id":52657,"epoch":"2026-09-19T19:25:51.782304Z","epoch_age_seconds":126105,"freshness":"FRESH","line1":"1 52657U 22053B   26262.80962711  .00000655  00000+0  32864-4 0  9991","line2":"2 52657  53.1614 348.9983 0001373  69.7916 290.3233 15.31697667240901","mean_motion":15.31697667,"eccentricity":0.0001373,"inclination_deg":53.1614,"raan_deg":348.9983,"arg_perigee_deg":69.7916,"mean_anomaly_deg":290.3233,"bstar":3.2864e-5,"rev_number":24090,"period_min":94.013331156951,"perigee_km":469.80659801977,"apogee_km":471.68730155238,"semimajor_km":6848.8839497861,"source":"CELESTRAK","updated_at":"2026-09-20T09:00:40.100204Z"}}